[[{"header":{"parameterUnit":"m.s-1","parameterCategory":1,"la1":30.2991,"la2":30.254,"lo1":-89.0895,"lo2":-89.0444,"dy":0.0017,"dx":0.0017,"nx":28,"ny":28,"refTime":"2024-04-13T03:00:00:Z","depth":0,"parameterNumber":2,"parameterNumberName":"U-component_of_WINDS"},"data":[0,0,0,0,0,0,0,0,0,0,0,0,0,0,0,0,0,0,0,0,0,0,0,0,0,0,0,0,0,0,0,0,0,0,0,0,0,0,0,0,0,0,0,0,0,0,0,0,0,0,0,0,0,0,0,0,0,0,-1.8679,-1.8679,0,-1.8691,-1.8691,-1.8691,-1.8657,-1.8656,-1.8655,-1.8654,-1.8667,-1.8668,-1.867,0,0,0,0,0,0,0,0,0,0,0,0,0,-1.8628,-1.8629,-1.8678,-1.8679,-1.8679,-1.8691,-1.8691,-1.8691,-1.8657,-1.8656,-1.8655,-1.8654,-1.8667,-1.8668,-1.867,0,0,0,0,0,0,0,0,0,0,0,0,0,-1.8646,-1.863,-1.8678,-1.8663,-1.8662,-1.869,-1.8691,-1.8691,-1.8658,-1.8656,-1.8655,-1.8653,-1.8666,-1.8668,-1.867,-1.8714,0,0,-1.8676,-1.8677,0,0,0,0,0,0,0,0,-1.8645,-1.8648,-1.8666,-1.8665,-1.8663,-1.8671,-1.8678,-1.8699,-1.8658,-1.8659,-1.8654,-1.8652,-1.867,-1.8671,-1.8677,-1.8714,-1.8715,-1.8676,-1.8678,-1.8678,-1.8679,0,0,0,0,0,0,0,-1.8644,-1.8647,-1.8683,-1.8666,-1.8664,-1.8657,-1.8658,-1.8681,-1.8673,-1.8659,-1.8657,-1.8659,-1.8669,-1.8675,-1.8677,-1.8715,-1.8676,-1.8678,-1.8679,-1.868,-1.8789,-1.8791,0,0,0,0,0,0,-1.8644,-1.8646,-1.8683,-1.8684,-1.865,-1.8659,-1.866,-1.867,-1.8673,-1.8672,-1.866,-1.8657,-1.8673,-1.8675,-1.8677,-1.8729,-1.8678,-1.868,-1.8681,-1.8787,-1.879,-1.8791,0,0,0,0,0,0,-1.8643,-1.8648,-1.8682,-1.8664,-1.8668,-1.8661,-1.8673,-1.8671,-1.8677,-1.8673,-1.8672,-1.8668,-1.8671,-1.8675,-1.8705,-1.8729,-1.8681,-1.8683,-1.8785,-1.8788,-1.879,-1.8831,0,0,0,0,0,0,-1.8642,-1.8648,-1.8664,-1.8665,-1.8669,-1.8709,-1.8675,-1.8672,-1.8681,-1.8677,-1.868,-1.868,-1.867,-1.8702,-1.8707,-1.873,-1.8684,-1.8783,-1.8787,-1.879,-1.8828,-1.8835,-1.8841,0,0,0,0,0,-1.864,-1.8675,-1.8665,-1.8669,-1.8689,-1.8711,-1.8713,-1.8702,-1.8683,-1.8699,-1.8697,-1.8679,-1.8725,-1.8706,-1.8711,-1.8735,-1.8782,-1.8786,-1.8789,-1.8825,-1.8834,-1.8841,0,0,0,0,0,0,-1.8677,-1.8675,-1.8663,-1.8699,-1.8705,-1.8705,-1.8725,-1.8711,-1.8723,-1.8719,-1.8705,-1.8706,-1.8739,-1.874,-1.8718,-1.8778,-1.875,-1.8755,-1.8776,-1.8784,-1.879,-1.8789,-1.8686,0,0,0,0,0,-1.8689,-1.8706,-1.8704,-1.8736,-1.8739,-1.8732,-1.8741,-1.8732,-1.8738,-1.874,-1.874,-1.8747,-1.8763,-1.8773,-1.8788,-1.8828,-1.8829,-1.8848,-1.8854,-1.886,-1.8864,-1.8886,-1.8894,-1.8804,-1.8804,-1.8804,0,0,-1.8714,-1.8715,-1.8727,-1.8743,-1.8747,-1.8765,-1.8734,-1.8755,-1.8769,-1.8743,-1.8772,-1.8772,-1.8779,-1.8815,-1.883,-1.8816,-1.8889,-1.8865,-1.8869,-1.887,-1.8891,-1.8899,-1.8907,-1.8807,-1.8806,-1.8806,0,0,-1.8769,-1.8772,-1.8799,-1.8803,-1.8809,-1.8805,-1.8811,-1.8813,-1.8812,-1.8841,-1.8822,-1.8839,-1.8867,-1.8872,-1.8879,-1.8938,-1.8922,-1.8943,-1.8977,-1.8999,-1.9006,-1.9012,-1.9033,-1.9041,-1.8947,-1.8948,-1.8948,0,-1.88,-1.8827,-1.8814,-1.8837,-1.8845,-1.8823,-1.885,-1.8855,-1.8866,-1.8872,-1.8857,-1.8891,-1.8894,-1.8931,-1.8946,-1.8952,-1.8959,-1.8942,-1.9006,-1.9012,-1.9018,-1.9037,-1.9045,-1.895,-1.895,-1.8949,-1.8949,0,-1.8864,-1.8884,-1.8905,-1.8916,-1.8926,-1.8951,-1.8943,-1.8955,-1.8945,-1.8942,-1.8972,-1.8975,-1.899,-1.8998,-1.8989,-1.9034,-1.9025,-1.9008,-1.898,-1.9029,-1.9047,-1.9055,-1.8954,-1.8953,-1.8952,-1.8951,0,0,-1.8942,-1.8946,-1.8954,-1.8959,-1.8964,-1.8979,-1.9004,-1.9018,-1.9029,-1.9038,-1.9058,-1.9083,-1.9067,-1.9075,-1.9066,-1.9085,-1.9132,-1.9066,-1.9066,-1.9078,-1.9182,-1.9194,-1.9203,-1.9122,-1.9123,-1.9125,-1.9181,0,-1.8996,-1.9037,-1.9027,-1.9068,-1.9086,-1.9066,-1.9088,-1.9094,-1.9092,-1.9107,-1.9105,-1.9123,-1.9101,-1.9106,-1.9124,-1.9122,-1.9152,-1.9118,-1.9141,-1.9142,-1.9139,-1.9213,-1.9226,-1.9279,-1.9188,-1.9189,-1.919,0,-1.9065,-1.9076,-1.9119,-1.9122,-1.9129,-1.9149,-1.9161,-1.9176,-1.9183,-1.9181,-1.919,-1.9178,-1.9203,-1.9175,-1.9209,-1.9186,-1.9195,-1.9196,-1.9198,-1.9199,-1.9168,-1.9215,-1.9296,-1.9303,-1.9202,-1.9201,-1.92,0,-1.9117,-1.9143,-1.9172,-1.9177,-1.9181,-1.9195,-1.9198,-1.9204,-1.9213,-1.9225,-1.9231,-1.9246,-1.9253,-1.9265,-1.9258,-1.9238,-1.9293,-1.9265,-1.9292,-1.9292,-1.9303,-1.9303,-1.9386,-1.931,-1.931,-1.931,-1.931,0,-1.9178,-1.9205,-1.9195,-1.9213,-1.9243,-1.9232,-1.9262,-1.9262,-1.9268,-1.9285,-1.9269,-1.9287,-1.9276,-1.9293,-1.9287,-1.9316,-1.932,-1.9319,-1.9317,-1.932,-1.932,-1.9325,-1.9321,-1.9312,-1.9312,-1.9311,-1.9311,0,-1.9241,-1.9235,-1.9265,-1.9268,-1.9269,-1.9291,-1.9293,-1.931,-1.9307,-1.933,-1.9335,-1.9331,-1.935,-1.9344,-1.9364,-1.9361,-1.9398,-1.9391,-1.9395,-1.9394,-1.942,-1.9418,-1.9509,-1.952,-1.9438,-1.9439,-1.944,0,-1.928,-1.93,-1.9305,-1.9316,-1.932,-1.9337,-1.9347,-1.9337,-1.9348,-1.9358,-1.9374,-1.9392,-1.9405,-1.9436,-1.9436,-1.9451,-1.9445,-1.9476,-1.9447,-1.945,-1.9445,-1.9444,-1.9446,-1.9481,-1.9482,-1.9483,-1.9484,0,-1.9351,-1.9347,-1.9361,-1.9376,-1.9388,-1.9398,-1.9407,-1.9417,-1.9408,-1.9422,-1.9441,-1.9451,-1.9472,-1.949,-1.9504,-1.9507,-1.9494,-1.9493,-1.95,-1.9503,-1.9504,-1.9503,-1.941,-1.9491,-1.949,-1.9489,-1.9489,-1.9489,-1.9403,-1.942,-1.9426,-1.9443,-1.9449,-1.9458,-1.9474,-1.9474,-1.9489,-1.9505,-1.9499,-1.9521,-1.9528,-1.9546,-1.9552,-1.9569,-1.9557,-1.9567,-1.957,-1.9572,-1.9576,-1.9502,-1.9572,-1.9571,-1.9571,-1.9571,-1.9571,0,-1.9472,-1.9475,-1.9491,-1.9504,-1.9518,-1.9504,-1.9514,-1.9526,-1.9546,-1.9554,-1.9567,-1.959,-1.9607,-1.9608,-1.9624,-1.9638,-1.9633,-1.9643,-1.9641,-1.9642,-1.9585,-1.9578,-1.9647,-1.9647,-1.9647,-1.9647,-1.9647,-1.9647,-1.951,-1.9538,-1.9536,-1.9567,-1.957,-1.9591,-1.9598,-1.9607,-1.9613,-1.9638,-1.9653,-1.9653,-1.9658,-1.9675,-1.9691,-1.969,-1.9697,-1.971,-1.9707,-1.9654,-1.9646,-1.9639,-1.9632,-1.9711,-1.9711,-1.9763,-1.9763,-1.9763]},{"header":{"parameterUnit":"m.s-1","parameterCategory":1,"la1":30.2991,"la2":30.254,"lo1":-89.0895,"lo2":-89.0444,"dy":0.0017,"dx":0.0017,"nx":28,"ny":28,"refTime":"2024-04-13T03:00:00:Z","depth":0,"parameterNumber":3,"parameterNumberName":"V-component_of_WINDS"},"data":[0,0,0,0,0,0,0,0,0,0,0,0,0,0,0,0,0,0,0,0,0,0,0,0,0,0,0,0,0,0,0,0,0,0,0,0,0,0,0,0,0,0,0,0,0,0,0,0,0,0,0,0,0,0,0,0,0,0,3.6406,3.6405,0,3.6355,3.6354,3.6354,3.6299,3.6298,3.6297,3.6297,3.6241,3.624,3.624,0,0,0,0,0,0,0,0,0,0,0,0,0,3.6453,3.6453,3.6406,3.6405,3.6404,3.6355,3.6354,3.6353,3.6299,3.6298,3.6297,3.6296,3.6241,3.6241,3.624,0,0,0,0,0,0,0,0,0,0,0,0,0,3.642,3.6452,3.6406,3.6371,3.6368,3.6355,3.6354,3.6353,3.6299,3.6298,3.6297,3.6296,3.6242,3.6241,3.6239,3.6256,0,0,3.6236,3.6236,0,0,0,0,0,0,0,0,3.6422,3.6419,3.6377,3.6374,3.637,3.6332,3.635,3.632,3.6299,3.6325,3.6296,3.6295,3.6272,3.6268,3.6261,3.6253,3.6251,3.6236,3.6235,3.6235,3.6234,0,0,0,0,0,0,0,3.6425,3.6421,3.6385,3.6376,3.6372,3.6358,3.6352,3.6345,3.6306,3.6323,3.6319,3.6314,3.627,3.6263,3.626,3.625,3.6236,3.6235,3.6234,3.6234,3.6252,3.6253,0,0,0,0,0,0,3.6433,3.6423,3.6387,3.6384,3.6394,3.6358,3.6351,3.6345,3.6305,3.6298,3.6315,3.6311,3.6265,3.6261,3.6257,3.6273,3.6235,3.6234,3.6233,3.6251,3.6252,3.6253,0,0,0,0,0,0,3.6434,3.643,3.6389,3.6402,3.6396,3.6358,3.6352,3.6345,3.6337,3.6299,3.6292,3.6314,3.6264,3.6259,3.6257,3.627,3.6233,3.6232,3.6249,3.6251,3.6253,3.6305,0,0,0,0,0,0,3.6435,3.6431,3.6437,3.6403,3.6395,3.639,3.6353,3.6345,3.6336,3.6331,3.6297,3.629,3.6263,3.6259,3.6256,3.6268,3.6231,3.6248,3.625,3.6252,3.6302,3.6309,3.6314,0,0,0,0,0,3.6437,3.6453,3.6437,3.6433,3.6403,3.6391,3.6387,3.6355,3.6337,3.6343,3.6319,3.6292,3.627,3.6259,3.6255,3.6267,3.6247,3.625,3.6252,3.6299,3.6307,3.6314,0,0,0,0,0,0,3.6488,3.6448,3.643,3.6436,3.6417,3.6382,3.6388,3.6365,3.635,3.6346,3.6307,3.6299,3.6302,3.6284,3.6273,3.6281,3.6254,3.6256,3.6292,3.6299,3.6305,3.6308,3.623,0,0,0,0,0,3.6501,3.6495,3.646,3.6468,3.646,3.6426,3.6419,3.6397,3.6376,3.6367,3.6343,3.6323,3.6311,3.6304,3.6292,3.63,3.6291,3.6307,3.6313,3.6318,3.632,3.6322,3.6328,3.6262,3.6262,3.6262,0,0,3.6525,3.6502,3.6501,3.6478,3.6461,3.6455,3.6419,3.6415,3.641,3.6366,3.6363,3.6344,3.6319,3.6322,3.6322,3.6308,3.6336,3.6321,3.6326,3.6324,3.6325,3.6332,3.6337,3.6264,3.6263,3.6263,0,0,3.6566,3.6549,3.6554,3.6538,3.6514,3.6491,3.6493,3.6461,3.6447,3.6443,3.641,3.6404,3.6385,3.6369,3.6358,3.6395,3.6369,3.6392,3.6422,3.6425,3.6431,3.6435,3.6447,3.6452,3.6394,3.6394,3.6394,0,3.6599,3.6591,3.6559,3.6557,3.6548,3.6509,3.6513,3.6499,3.6472,3.6466,3.6451,3.6427,3.6407,3.6405,3.6415,3.6407,3.6407,3.6394,3.6433,3.6437,3.644,3.6452,3.6457,3.6397,3.6396,3.6396,3.6396,0,3.6632,3.6627,3.6634,3.6609,3.6601,3.6602,3.657,3.6565,3.6543,3.6522,3.6519,3.6494,3.6476,3.6474,3.6453,3.647,3.6461,3.644,3.6413,3.645,3.646,3.6464,3.6401,3.64,3.6399,3.6398,0,0,3.6703,3.6662,3.6665,3.6654,3.6624,3.6619,3.6619,3.6602,3.6598,3.6581,3.6578,3.6564,3.6545,3.6533,3.6509,3.6512,3.6542,3.649,3.6489,3.65,3.6558,3.6574,3.6579,3.6526,3.6527,3.6527,3.656,0,3.6739,3.6736,3.6708,3.6713,3.6707,3.6671,3.6671,3.6652,3.6633,3.6625,3.6603,3.6593,3.6568,3.6561,3.6562,3.6538,3.6553,3.6536,3.6522,3.6522,3.6528,3.6584,3.66,3.6633,3.6564,3.6564,3.6565,0,3.6779,3.6766,3.6771,3.6742,3.6738,3.6738,3.6721,3.6714,3.6692,3.6678,3.6665,3.664,3.6636,3.6612,3.6606,3.6595,3.6587,3.6575,3.6575,3.6572,3.6545,3.6581,3.6642,3.6647,3.6571,3.657,3.657,0,3.6829,3.6812,3.6813,3.6804,3.6771,3.6772,3.6758,3.6735,3.6727,3.6712,3.6706,3.669,3.6681,3.667,3.664,3.6625,3.6637,3.661,3.6624,3.6625,3.6627,3.6627,3.6687,3.6625,3.6625,3.6625,3.6625,0,3.6871,3.6875,3.6835,3.6835,3.6839,3.6806,3.681,3.6793,3.6773,3.6769,3.6737,3.6733,3.6695,3.6687,3.6664,3.6662,3.6659,3.6646,3.6639,3.6648,3.665,3.6642,3.6638,3.6626,3.6626,3.6625,3.6625,0,3.6927,3.69,3.6898,3.6868,3.686,3.6864,3.6837,3.6835,3.6815,3.681,3.6807,3.6774,3.6762,3.6732,3.6713,3.6697,3.6702,3.669,3.6709,3.6705,3.672,3.6719,3.6776,3.6781,3.6717,3.6718,3.6719,0,3.6955,3.6957,3.6927,3.6923,3.691,3.6903,3.6895,3.6864,3.6857,3.6833,3.6834,3.6821,3.6808,3.6792,3.6766,3.6751,3.6738,3.6759,3.6735,3.6744,3.6737,3.6737,3.6737,3.6764,3.6765,3.6765,3.6766,0,3.7007,3.6994,3.6984,3.697,3.6962,3.6949,3.6934,3.6932,3.6896,3.689,3.6879,3.687,3.6851,3.6837,3.6819,3.6803,3.6778,3.6774,3.6776,3.6784,3.6795,3.6788,3.6722,3.6772,3.6772,3.6771,3.6771,3.6771,3.7048,3.7049,3.7028,3.7018,3.7004,3.6992,3.6989,3.6969,3.6959,3.6942,3.6924,3.6915,3.6893,3.6866,3.6852,3.6844,3.6831,3.6834,3.6835,3.6836,3.6839,3.6798,3.684,3.684,3.684,3.684,3.6839,0,3.7098,3.7083,3.7075,3.7056,3.7048,3.7028,3.701,3.7005,3.6998,3.698,3.6969,3.6956,3.6944,3.6917,3.6902,3.69,3.6889,3.6897,3.6896,3.6893,3.6852,3.6851,3.6907,3.6907,3.6907,3.6907,3.6907,3.6907,3.7122,3.7122,3.7107,3.7099,3.7084,3.7076,3.7068,3.7056,3.7042,3.7029,3.7019,3.7003,3.6981,3.6964,3.6952,3.6944,3.6939,3.6951,3.694,3.6902,3.6896,3.689,3.6889,3.6951,3.6951,3.6981,3.6981,3.6982]}]]